Location: Wildcat Hills Observatory
(41.6350°N, 103.6812°W)
Time: 23:30:09
(UTC-06:00)

Daily predictions for brighter satellites

Satellite Brightness Start Highest point End
(mag) Time Altitude Azimuth Time Altitude Azimuth Time Altitude Azimuth
ALOS 2.9 20:06:22 10° S 20:10:58 60° W 20:15:36 10° NNW
Cosmos 2297 Rocket 3.5 20:05:43 10° NW 20:11:01 42° WSW 20:16:18 10° S
DELTA 2 R/B (1) 4.1 20:07:23 10° W 20:12:51 53° SSW 20:18:17 10° ESE
Nadezhda 4 Rocket 4.0 20:07:58 10° N 20:14:15 75° E 20:20:32 10° SSE
USA 186 2.0 20:12:22 10° SE 20:14:50 36° ENE 20:17:29 10° N
Cosmos 1315 Rocket 3.4 20:11:04 10° N 20:14:57 41° ENE 20:18:46 10° SSE
FENGYUN 3A 4.2 20:10:29 10° S 20:15:46 62° W 20:21:06 10° NNW
H-2A R/B 3.0 20:12:38 10° S 20:16:33 79° WSW 20:20:26 10° NNW
Cosmos 2263 Rocket 3.7 20:15:50 10° N 20:19:53 20° NE 20:23:55 10° E
Abrixas rocket 2.1 20:16:45 10° SW 20:20:01 69° SSE 20:23:17 10° ENE
Meteor 2-3 Rocket 3.9 20:15:27 10° NNW 20:21:10 82° W 20:26:55 10° S
Cosmos 1634 Rocket 4.3 20:15:35 10° SSE 20:21:30 46° E 20:27:29 10° NNE
Cosmos 1092 Rocket 4.1 20:16:42 10° N 20:23:00 63° E 20:29:16 10° SSE
Cosmos 2322 Rocket 3.0 20:19:27 10° SSE 20:24:06 27° ESE 20:28:46 10° NE
Cosmos 1707 Rocket 3.7 20:19:58 10° S 20:24:17 54° E 20:28:38 10° NNE
Spot 2 Rocket 3.7 20:23:38 10° SSE 20:28:44 81° WSW 20:33:52 10° NNW
Cosmos 1733 Rocket 4.4 20:27:51 10° NNE 20:31:25 23° ENE 20:34:28 12° ESE
Meteor 1-29 3.6 20:31:18 10° NNE 20:34:31 34° E 20:37:41 10° SSE
CZ-2D R/B 3.6 20:31:09 10° S 20:35:02 71° WSW 20:38:57 10° NNW
Helios 1B rocket 2.6 20:31:09 10° NNE 20:35:08 48° E 20:39:05 10° S
Cosmos 2360 Rocket 3.8 20:34:16 12° ESE 20:35:34 13° E 20:37:51 10° ENE
Cosmos 1980 Rocket 2.3 20:30:03 10° SSW 20:35:43 84° WNW 20:41:28 10° NNE
Lacrosse 4 Rocket 2.6 20:32:42 10° N 20:36:32 30° NE 20:39:39 14° ESE
USA 267 4.3 20:31:35 10° NE 20:37:49 49° NNW 20:44:02 10° WSW
Resurs 1-3 4.1 20:33:54 10° S 20:38:15 64° WSW 20:42:37 10° NNW
Intercosmos 25 Rocket 3.9 20:36:22 10° SSE 20:39:10 29° E 20:42:25 10° NNE
Cosmos 1825 2.9 20:37:08 10° N 20:40:38 33° ENE 20:43:20 15° SE
Cosmos 1869 Rocket 3.8 20:37:21 10° N 20:41:51 78° W 20:46:18 10° S
Envisat 3.0 20:43:34 10° SSE 20:48:36 67° ENE 20:53:39 10° N
Cosmos 1939 Rocket 3.1 20:45:36 12° SSE 20:49:10 52° ENE 20:53:05 10° N
Cosmos 1302 Rocket 4.1 20:44:06 10° SSW 20:49:18 81° WNW 20:54:31 10° NNE
CZ-4B DEB 2.6 20:48:17 15° SSE 20:50:38 61° ENE 20:53:40 10° N
SL-16 R/B 2.5 20:45:33 10° S 20:50:54 46° ESE 20:56:18 10° NE
Cosmos 2242 Rocket 3.8 20:46:37 10° SSE 20:50:59 51° E 20:55:21 10° NNE
SJ-11-01 4.3 20:49:40 11° SSE 20:54:10 66° ENE 20:58:48 10° N
Cosmos 1627 Rocket 4.4 20:50:09 10° N 20:56:24 74° E 21:02:31 10° SSE
SPOT 5 4.3 20:54:50 16° E 20:56:55 21° ENE 21:00:24 10° NNE
Cosmos 2195 Rocket 4.4 20:55:35 10° N 21:01:43 83° E 21:07:52 10° S
ATLAS 5 CENTAUR R/B 3.5 20:56:43 10° NNW 21:01:52 30° NE 21:05:54 16° E
Cosmos 2279 Rocket 4.1 20:57:46 10° S 21:03:52 58° E 21:09:58 10° NNE
OAO 3 Rocket 3.9 21:00:24 10° WSW 21:04:54 36° S 21:07:08 24° SE
Resurs 01 Rocket 3.7 21:03:23 10° SSW 21:07:10 27° W 21:10:59 10° NW
Helios 1A 3.5 21:04:04 10° S 21:08:14 58° WSW 21:12:26 10° NNW
DELTA 2 R/B(2) 4.0 21:06:35 10° W 21:09:42 45° SSW 21:09:55 43° S
SAR-Lupe-4 4.4 21:07:14 10° S 21:10:43 50° W 21:14:14 10° NNW
USA 234 3.4 21:07:21 19° SE 21:12:21 75° SW 21:18:56 10° NW
ARGOS 4.1 21:11:51 22° ESE 21:14:06 31° ENE 21:18:46 10° N
Atlas Centaur 2 3.9 21:08:37 10° SSW 21:14:30 26° SSE 21:16:54 22° SE
Cosmos 1428 Rocket 4.4 21:15:19 10° N 21:21:26 72° E 21:25:44 20° SSE
BREEZE-M DEB (TANK) 4.2 21:18:09 10° W 21:21:31 56° N 21:31:18 10° E
Cosmos 1408 2.9 21:18:36 10° NNW 21:22:18 65° W 21:24:36 21° S
Cosmos 2180 Rocket 4.5 21:17:34 10° S 21:23:54 69° E 21:30:13 10° NNE
ERS-1 Rocket 2.9 21:22:11 26° SSE 21:25:03 72° ENE 21:30:04 10° N
ERBS 2.6 21:21:44 10° NW 21:25:09 60° SW 21:26:02 42° S
MOS 1-B Rocket 4.5 21:26:13 27° ESE 21:28:43 40° ENE 21:33:58 10° N
Sich 1 Rocket 4.1 21:26:22 10° N 21:30:36 42° ENE 21:31:27 37° ESE
SeaSat 1 2.6 21:39:59 40° ESE 21:41:31 57° ENE 21:46:21 10° NNW
Cosmos 1992 Rocket 4.0 21:37:50 10° SSW 21:43:04 83° WNW 21:48:21 10° NNE
H-2A R/B 3.8 21:44:20 19° ENE 21:44:20 19° ENE 21:47:10 10° NNE
Cosmos 1908 Rocket 3.5 21:43:24 10° N 21:47:43 64° E 21:48:15 58° ESE
USA 245 4.3 21:46:03 38° SE 21:48:14 63° ENE 21:53:28 10° N
Milstar 3 3.9 21:44:11 10° WSW 21:49:52 25° SSW 21:50:57 24° S
MetOp-A 4.0 21:49:41 39° SSE 21:51:48 88° ENE 21:57:12 10° NNW
Cosmos 1933 3.9 21:50:29 23° SSW 21:52:50 55° W 21:56:49 10° N
USA 229 DEB 3.9 21:51:55 35° SSE 21:54:01 44° ESE 22:00:30 10° NE
USA 229 3.9 21:52:12 36° SSE 21:54:07 44° ESE 22:00:35 10° NE
YAOGAN 6 3.8 21:54:40 29° SW 21:55:50 38° W 21:59:15 10° NNW
Abrixas rocket 4.0 21:54:03 10° WNW 21:57:01 30° NNW 21:58:01 25° NNE
Meteor 1-25 Rocket 4.5 21:54:34 10° N 21:59:59 47° ENE 22:00:42 45° E
Cosmos 1782 Rocket 3.8 21:57:21 10° N 22:01:20 51° ENE 22:01:20 51° ENE
Okean 2 Rocket 3.9 21:57:49 10° N 22:01:36 37° ENE 22:01:36 37° ENE
Cosmos 1867 3.7 21:56:54 10° NNW 22:02:19 59° NE 22:03:20 50° E
COSMOS 2428 3.9 22:05:01 27° ENE 22:05:01 27° ENE 22:08:15 10° NE
Cosmos 2263 Rocket 2.3 21:58:47 10° NNW 22:04:19 66° WSW 22:06:05 42° S
H-2A R/B 2.2 22:04:41 51° E 22:05:04 52° ENE 22:09:53 10° N
Terra 3.0 22:05:46 29° ENE 22:05:46 29° ENE 22:09:35 10° N
Cosmos 2322 Rocket 3.4 22:02:36 10° SW 22:07:54 42° WNW 22:13:15 10° NNE
Lacrosse 4 Rocket 3.0 22:11:29 10° NW 22:15:09 27° WSW 22:16:01 25° SW
Meteor 2-10 Rocket 4.0 22:11:52 23° SSW 22:15:34 67° WNW 22:21:22 10° N
SL-08 RB Rocket 3.6 22:16:00 84° S 22:16:09 90° WNW 22:20:45 10° NNW
Cosmos 2360 Rocket 2.1 22:15:51 31° SSW 22:18:43 86° WNW 22:24:25 10° NNE
Meteor 1-20 Rocket 4.1 22:16:30 10° N 22:22:02 65° ENE 22:22:21 64° E
Cosmos 2322 3.6 22:22:28 46° SSW 22:24:18 90° WNW 22:30:03 10° NNE
Cosmos 968 Rocket 3.5 22:20:46 10° NNW 22:25:57 71° WSW 22:26:25 66° SW
ASTEX 1 4.2 22:30:23 41° NE 22:30:23 41° NE 22:34:18 10° N
Okean 1-7 3.5 22:32:09 59° N 22:32:09 59° N 22:35:47 10° N
Meteor 1-22 4.4 22:26:16 10° N 22:31:39 79° E 22:31:41 79° E
SPOT 5 3.6 22:34:04 43° WSW 22:34:42 45° W 22:39:16 10° NNW
Cosmos 1703 Rocket 4.2 22:34:30 49° W 22:34:46 50° W 22:39:06 10° N
SL-16 R/B 4.1 22:30:23 10° WSW 22:35:12 28° NW 22:40:02 10° N
Cosmos 2266 Rocket 4.4 22:30:15 10° NNW 22:36:24 60° W 22:38:21 42° SSW
Cosmos 2221 Rocket 4.0 22:37:28 59° NW 22:37:28 59° NW 22:41:24 10° N
CZ-4C R/B 4.0 22:36:06 10° NNW 22:42:12 31° NE 22:44:55 25° ENE
Cosmos 2333 Rocket 3.9 22:46:51 20° ENE 22:46:51 20° ENE 22:48:57 10° NE
ATLAS 5 CENTAUR R/B 2.6 22:40:59 10° NW 22:46:58 61° WSW 22:47:28 59° SW
SPOT 1/Viking Rocket 4.2 22:52:06 47° WSW 22:52:21 47° W 22:57:24 10° NNW
Cosmos 2237 Rocket 4.2 22:56:37 16° ENE 22:56:37 16° ENE 22:58:02 10° NE
ARGOS 4.2 22:53:21 33° WSW 22:54:14 35° W 22:59:07 10° NNW
Cosmos 2278 Rocket 3.3 22:51:21 10° N 22:56:09 32° NE 22:56:09 32° NE
Cosmos 1244 Rocket 4.3 22:50:29 10° N 22:56:44 88° W 22:56:56 85° SSW
Meteor 1-27 Rocket 4.4 23:01:53 44° NE 23:01:53 44° NE 23:05:55 10° NNE
Atlas Centaur 2 4.2 22:56:09 10° WSW 22:59:34 25° SW 22:59:34 25° SW
SL-19 R/B 4.3 22:57:42 10° NNE 23:03:46 85° NW 23:03:46 85° NW
Cosmos 1553 Rocket 4.1 23:07:57 67° NE 23:07:57 67° NE 23:13:34 10° NNE
Cosmos 1844 Rocket 2.9 23:02:35 10° NNW 23:07:24 67° NNW 23:07:24 67° NNW
SL-08 R/B 4.5 23:08:08 10° N 23:13:44 73° NNE 23:13:44 73° NNE
SeaSat 1 4.5 23:19:46 19° W 23:19:46 19° W 23:22:48 10° WNW
H-2A R/B 3.9 23:21:27 28° NW 23:21:27 28° NW 23:23:52 10° NNW
Meteor 1-11 Rocket 4.1 23:16:12 10° N 23:20:33 57° N 23:20:33 57° N
Cosmos 2219 Rocket 3.0 23:27:00 43° NNE 23:27:00 43° NNE 23:30:44 10° NNE
S3M 4.2 23:36:14 66° NW 23:36:14 66° NW 23:41:45 10° N
NOSS 3-1 (C) 4.0 23:43:39 51° NNE 23:43:39 51° NNE 23:48:29 10° NE
Terra 3.7 23:44:38 25° WNW 23:44:38 25° WNW 23:47:21 10° NW
H-2A R/B 4.1 23:45:18 18° W 23:45:18 18° W 23:48:09 10° NW
COSMOS 2428 3.8 23:46:58 37° WNW 23:47:25 38° WNW 23:52:44 10° N
